Dewpoint
69 70 74 73 73 73 73 73 73 74 74 74 74 74 74 74 74 73 73 73 73 73 73 73 73 73 72 72 73 73 72 71 72 73 73 73 74 73 73 74 75 71 74
68 69 75 74 74 74 74 74 74 73 74 74 75 75 74 74 74 74 74 74 73 73 73 73 72 71 72 72 72 73 73 72 71 71 73 72 73 73 73 72 74 75 75
66 69 72 75 74 74 74 75 73 74 74 74 75 75 74 74 74 74 74 74 74 73 73 73 73 73 72 71 72 71 72 72 71 73 73 73 71 74 73 73 72 74 75
65 67 69 76 75 74 74 74 74 74 74 74 75 73 73 73 74 73 72 71 71 72 72 71 71 72 72 72 70 70 71 72 72 72 71 71 70 74 74 73 74 75 75
64 67 72 74 74 74 75 75 75 74 74 72 71 71 71 71 70 70 70 69 70 70 70 70 71 72 73 73 72 72 71 70 71 70 71 71 70 73 75 74 73 75 74
65 68 74 75 75 74 75 74 72 73 73 73 72 72 71 70 70 70 70 70 70 71 72 73 72 72 71 72 72 72 73 73 72 68 69 73 68 75 75 74 74 73 75
63 65 71 75 74 74 74 74 74 74 72 71 70 70 70 70 70 70 71 71 72 73 73 73 73 73 72 73 73 73 73 73 71 72 72 69 71 75 75 74 74 74 74
61 67 70 75 75 74 75 74 72 71 70 70 70 71 71 72 72 72 72 71 72 73 73 73 73 72 72 72 73 74 74 73 71 72 71 71 74 76 75 74 75 75 75
60 65 69 71 73 74 74 73 71 71 71 70 72 73 74 74 74 73 73 73 73 73 73 73 74 73 73 73 73 75 74 74 72 71 70 72 75 75 75 74 74 75 76
61 62 67 69 68 70 69 73 72 72 72 73 74 74 74 74 75 75 76 76 74 74 75 76 75 76 76 77 77 76 75 75 72 73 72 72 74 74 73 74 75 76 77
61 63 65 66 69 71 70 69 73 73 74 74 75 76 77 73 74 73 75 77 76 76 77 78 78 78 78 78 76 76 77 74 73 74 72 75 75 75 74 73 73 76 76
59 59 62 65 67 69 64 71 72 71 72 74 75 77 75 75 75 74 74 77 77 78 78 78 77 78 77 73 75 69 72 76 72 72 72 75 75 74 72 71 71 71 75
57 58 60 65 69 64 68 72 72 72 72 74 78 79 76 76 76 75 75 74 75 75 73 75 74 73 73 73 74 74 72 72 71 71 73 75 74 72 69 69 69 70 72
54 57 60 65 72 71 72 71 73 71 71 74 77 77 75 76 76 72 74 74 75 76 73 75 73 73 72 72 74 71 71 67 68 69 73 75 74 72 70 71 71 71 71
57 59 65 70 74 76 75 76 74 74 73 72 76 77 75 75 73 75 76 75 75 72 72 75 75 73 69 67 70 69 67 67 64 68 70 74 73 73 72 71 72 72 72
59 60 64 69 74 75 78 78 78 73 73 75 76 76 79 77 77 77 76 74 75 75 74 75 75 74 72 70 67 67 69 69 68 66 69 71 73 73 73 70 70 70 71
60 62 64 68 71 75 78 77 74 73 73 72 74 76 76 78 78 78 74 74 73 77 74 76 75 74 72 69 68 71 68 68 69 69 68 68 71 73 72 70 67 67 66
60 66 66 63 70 74 77 78 75 74 74 73 73 75 76 76 77 78 74 74 77 76 74 71 72 72 71 70 68 70 70 69 69 69 69 70 70 69 71 71 69 67 66
64 68 68 71 71 73 77 78 77 75 73 76 74 75 76 73 75 75 75 75 78 74 73 72 74 74 73 70 65 65 70 69 69 69 69 71 69 67 69 71 69 68 66
64 68 69 71 75 76 76 76 74 73 75 73 73 73 75 71 75 75 75 77 76 75 75 75 77 75 72 70 64 64 66 67 69 72 70 72 70 69 69 69 69 66 66
64 68 72 73 78 76 76 73 73 68 72 72 72 74 75 72 74 78 71 69 76 77 78 77 75 74 71 71 70 67 68 66 65 68 72 72 71 72 71 70 69 69 68
65 69 72 73 77 76 74 76 73 76 72 72 75 76 75 74 74 74 70 65 72 78 77 78 78 74 73 72 68 67 64 67 63 61 63 68 70 71 70 69 69 69 68
64 67 71 74 75 76 76 76 77 78 77 74 73 74 74 75 75 77 77 79 79 78 76 77 77 76 72 72 70 67 64 62 61 65 64 62 64 65 67 67 68 68 66
63 66 70 72 74 74 77 75 78 76 74 73 76 74 74 75 74 75 77 78 80 79 78 78 77 78 74 72 72 68 68 65 62 60 64 65 64 65 66 65 66 66 66
59 63 68 73 75 76 75 77 76 75 71 73 73 79 78 78 78 75 77 77 80 79 78 78 77 77 77 75 73 71 71 68 66 62 60 61 63 63 64 64 64 64 64
57 59 65 72 75 76 77 76 77 77 75 72 76 75 75 72 73 77 75 78 79 80 78 78 77 77 76 76 75 73 69 68 66 64 62 60 58 62 62 63 63 64 64
Lifted_Index
-2 -3 -3 -3 -3 -3 -3 -3 -3 -3 -3 -4 -4 -3 -3 -3 -3 -3 -3 -3 -3 -3 -3 -3 -3 -3 -4 -4 -4 -5 -4 -4 -4 -4 -5 -5 -5 -4 -4 -4 -5 -6 -6
-2 -3 -4 -4 -4 -3 -3 -3 -3 -3 -3 -3 -3 -3 -3 -3 -3 -3 -3 -3 -3 -3 -3 -3 -3 -3 -3 -4 -4 -4 -4 -4 -4 -4 -5 -5 -5 -5 -4 -4 -5 -6 -6
-2 -3 -4 -4 -4 -3 -3 -3 -3 -3 -3 -3 -4 -4 -3 -3 -3 -3 -3 -3 -3 -3 -4 -3 -3 -3 -3 -3 -3 -4 -4 -4 -4 -4 -4 -4 -5 -5 -5 -5 -5 -6 -7
-2 -3 -4 -4 -4 -3 -3 -3 -3 -3 -3 -3 -3 -3 -2 -2 -2 -2 -2 -2 -2 -3 -3 -3 -4 -4 -4 -3 -3 -3 -4 -4 -4 -4 -3 -3 -4 -6 -6 -6 -6 -6 -7
-2 -3 -4 -4 -3 -3 -3 -3 -3 -3 -3 -3 -2 -2 -2 -2 -2 -2 -2 -2 -2 -2 -3 -3 -4 -4 -4 -4 -4 -4 -4 -4 -4 -4 -3 -3 -4 -6 -6 -6 -6 -6 -7
-2 -2 -3 -4 -3 -3 -3 -3 -3 -2 -2 -2 -2 -1 -1 -1 -1 -1 -2 -2 -2 -3 -3 -4 -4 -4 -4 -4 -4 -4 -4 -4 -4 -4 -4 -4 -4 -5 -6 -6 -6 -6 -6
-1 -2 -3 -3 -3 -3 -3 -3 -2 -2 -2 -1 -1 -1 -1 -2 -2 -2 -2 -2 -3 -3 -4 -4 -4 -4 -4 -4 -5 -5 -5 -5 -5 -5 -5 -5 -5 -5 -5 -5 -6 -6 -6
-0 -1 -2 -3 -3 -3 -3 -2 -2 -1 -1 -1 -1 -2 -2 -2 -2 -2 -2 -3 -3 -3 -4 -4 -4 -4 -4 -4 -5 -5 -5 -5 -5 -5 -5 -5 -5 -5 -6 -6 -6 -7 -7
-0 -1 -2 -2 -2 -2 -2 -2 -1 -1 -1 -2 -2 -2 -3 -3 -3 -3 -3 -3 -3 -3 -4 -4 -4 -4 -5 -5 -5 -5 -5 -5 -5 -5 -5 -5 -5 -6 -6 -6 -7 -7 -7
0 -0 -1 -1 -1 -1 -1 -1 -1 -1 -2 -2 -3 -3 -3 -3 -3 -4 -4 -4 -4 -4 -5 -5 -5 -6 -6 -6 -6 -6 -6 -6 -6 -5 -5 -6 -6 -6 -6 -7 -7 -8 -8
0 -0 -0 -1 -1 -1 -1 -1 -1 -2 -2 -3 -4 -4 -4 -4 -4 -4 -4 -4 -4 -5 -6 -6 -6 -6 -6 -6 -5 -5 -6 -7 -6 -6 -6 -6 -6 -6 -6 -7 -7 -7 -7
1 1 0 -0 -0 -0 -0 -1 -2 -2 -3 -4 -4 -5 -5 -4 -4 -4 -4 -4 -5 -5 -6 -6 -6 -7 -6 -6 -5 -5 -6 -7 -7 -7 -7 -7 -7 -6 -6 -6 -6 -6 -7
2 2 1 1 0 -0 -1 -2 -2 -2 -3 -4 -5 -5 -4 -4 -4 -4 -4 -4 -5 -5 -5 -6 -6 -6 -6 -6 -6 -6 -6 -7 -7 -7 -7 -7 -6 -6 -5 -6 -6 -6 -6
3 2 2 1 -0 -1 -2 -2 -2 -2 -3 -3 -4 -4 -4 -5 -4 -4 -4 -4 -4 -4 -5 -6 -6 -6 -6 -7 -7 -7 -6 -6 -6 -6 -7 -6 -6 -5 -5 -6 -6 -6 -6
3 2 1 0 -1 -2 -3 -3 -3 -3 -3 -3 -4 -4 -4 -5 -4 -4 -4 -4 -4 -5 -5 -6 -7 -6 -6 -6 -7 -6 -6 -6 -5 -5 -6 -6 -6 -6 -6 -6 -6 -6 -6
2 2 1 -1 -2 -3 -4 -4 -3 -3 -3 -3 -4 -4 -4 -5 -5 -6 -6 -5 -5 -6 -6 -7 -7 -6 -6 -6 -6 -6 -6 -6 -5 -5 -6 -6 -6 -6 -6 -5 -5 -5 -5
2 1 0 -1 -2 -3 -4 -4 -3 -2 -3 -3 -3 -4 -4 -5 -5 -6 -6 -6 -6 -7 -7 -7 -7 -6 -6 -6 -6 -6 -6 -6 -5 -6 -6 -6 -6 -6 -5 -5 -4 -3 -3
1 1 -0 -1 -2 -4 -4 -4 -3 -3 -3 -3 -3 -4 -4 -4 -5 -6 -6 -6 -7 -7 -7 -6 -6 -6 -6 -5 -4 -5 -5 -5 -6 -6 -6 -6 -5 -4 -5 -4 -4 -3 -3
1 0 -1 -2 -3 -4 -5 -5 -4 -3 -3 -3 -3 -4 -4 -4 -4 -5 -6 -6 -7 -7 -6 -6 -6 -6 -5 -4 -3 -4 -4 -5 -6 -6 -6 -5 -4 -4 -4 -4 -3 -3 -2
0 -0 -1 -2 -3 -4 -4 -4 -4 -3 -2 -3 -3 -3 -3 -3 -4 -5 -5 -6 -7 -7 -7 -7 -7 -6 -5 -4 -3 -3 -4 -4 -5 -6 -6 -6 -5 -4 -4 -4 -3 -3 -3
-0 -1 -2 -3 -4 -4 -4 -4 -3 -2 -2 -3 -3 -3 -3 -3 -4 -4 -4 -4 -6 -7 -7 -8 -7 -6 -5 -4 -4 -4 -4 -4 -4 -5 -6 -6 -6 -6 -5 -4 -4 -3 -3
-1 -1 -2 -3 -4 -4 -3 -3 -3 -3 -3 -3 -3 -3 -3 -3 -4 -4 -4 -3 -5 -7 -7 -8 -7 -6 -5 -4 -4 -3 -3 -4 -3 -3 -4 -4 -5 -5 -5 -4 -4 -3 -3
-0 -1 -2 -3 -3 -4 -3 -3 -3 -3 -3 -3 -2 -3 -3 -3 -4 -5 -5 -5 -6 -7 -7 -8 -7 -7 -6 -5 -4 -3 -3 -3 -3 -3 -3 -2 -2 -3 -3 -3 -3 -3 -3
0 -0 -1 -2 -3 -3 -3 -3 -3 -3 -2 -2 -2 -3 -4 -4 -4 -5 -5 -6 -7 -7 -7 -7 -7 -7 -6 -5 -5 -4 -3 -3 -3 -3 -2 -1 -0 -1 -2 -1 -1 -1 -1
1 0 -1 -2 -3 -3 -3 -3 -3 -3 -2 -2 -3 -3 -3 -4 -4 -5 -5 -6 -7 -7 -7 -7 -7 -7 -6 -6 -5 -5 -4 -3 -3 -2 -2 -0 0 -0 -0 0 0 0 0
2 1 -1 -2 -3 -3 -3 -3 -3 -3 -2 -2 -3 -3 -3 -3 -4 -5 -5 -6 -7 -7 -7 -7 -7 -7 -7 -6 -6 -5 -4 -3 -2 -2 -2 -0 1 0 0 1 1 1 1